Tracking 17884 objects as of 4-December-2016
HD Live streaming from Space Station
objects crossing your sky now

H-1 R/B(1)

Track H-1 R/B(1) now!
10-day predictions


NORAD ID: 20230
Int'l Code: 1989-070B
Perigee: 190.7 km
Apogee: 5,796.6 km
Inclination: 28.2 °
Period: 150.3 minutes
Semi major axis: 9364 km
RCS: 2.9914 m2 (large)
Launch date: September 5, 1989
Source: Japan (JPN)
Launch site: TANEGASHIMA SPACE CENTER (TNSTA)

Note: This is a ROCKET BODY
Your satellite tracking list
Your tracking list is empty





NASA's NSSDC Master Catalog

Two Line Element Set (TLE):
1 20230U 89070B   16339.53044782  .00183535 -12260-5  83344-3 0  9993
2 20230  28.2189 160.8697 2993148 214.3106 122.2154  9.58004363491389
Source of the keplerian elements: AFSPC